Location: Ravensburg
(47.7866°N, 9.6124°E)
Time: 14:51:50
(UTC+02:00)

AO-73 - Pass Details

Date: 17 March 2026
Orbit: 514 x 567 km, 97.8° (Epoch: 13 April)

Event Time Altitude Azimuth Distance (km) Brightness Sun altitude
Rises 03:17:44 0° 26° (NNE) 2,664 ? -31.2°
Reaches altitude 10° 03:20:17 10° 44° (NE) 1,762 ? -30.8°
Enters shadow 03:22:46 20° 84° (E) 1,239 ? -30.5°
